"2009-06-02 00:00:00",939189,2.933,34.56,4.652,0.298,16.42,107.3799,18.17,19.22,43.86,0,110.8,13.21,18.98,356.6
"2009-06-02 00:00:30",939190,2.435,32.22,4.142,0.205,16.44,107.3808,18.17,19.22,43.92,0,110.8,13.21,18.99,354.2
"2009-06-02 00:01:00",939191,2.622,38.8,1.482,0.146,16.41,107.3817,18.17,19.22,44.11,0,110.8,13.21,18.99,0.8
"2009-06-02 00:01:30",939192,2.684,39.17,2.112,0.09,16.36,107.3866,18.19,19.23,44.06,0,110.8,13.21,19.00,1.2
"2009-06-02 00:02:00",939193,2.288,36.91,4.302,0.211,16.26,107.3887,18.19,19.21,44.06,0,110.8,13.21,19.01,358.9
"2009-06-02 00:02:30",939194,1.51,16.77,9.88,0.455,16.3,107.3858,18.18,19.21,43.97,0,110.8,13.21,19.00,338.8
"2009-06-02 00:03:00",939195,1.864,19.94,6.524,0.397,16.24,107.3712,18.15,19.19,43.89,0,110.8,13.21,18.96,341.9
"2009-06-02 00:03:30",939196,1.786,22.32,5.014,0.262,16.18,107.3667,18.14,19.19,43.91,0,110.8,13.21,18.95,344.3
"2009-06-02 00:04:00",939197,1.622,27.17,5.008,0.167,16.14,107.3628,18.13,19.18,43.94,0,110.8,13.21,18.94,349.2
"2009-06-02 00:04:30",939198,1.849,23.72,5.641,0.203,16.14,107.3577,18.11,19.16,44.07,0,110.8,13.21,18.93,345.7
"2009-06-02 00:05:00",939199,2.687,29.45,3.88,0.618,16.25,107.3549,18.11,19.16,44.23,0,110.8,13.21,18.92,351.5
"2009-06-02 00:05:30",939200,2.952,30.55,2.888,0.428,16.26,107.3549,18.11,19.16,44.82,0,110.8,13.21,18.92,352.5
"2009-06-02 00:06:00",939201,3.154,32.83,4.398,0.492,16.31,107.356,18.11,19.17,44.95,0,110.8,13.21,18.92,354.8
"2009-06-02 00:06:30",939202,4.28,43.46,6.165,0.314,16.3,107.3575,18.11,19.17,45.13,0,110.8,13.21,18.93,5.5
"2009-06-02 00:07:00",939203,4.206,43.3,3.488,0.379,16.43,107.3549,18.11,19.17,45.18,0,110.8,13.21,18.92,5.3
"2009-06-02 00:07:30",939204,4.013,35.42,3.063,0.553,16.48,107.3549,18.11,19.16,45.1,0,110.8,13.21,18.92,357.4
"2009-06-02 00:08:00",939205,4.487,39.27,5.415,0.376,16.51,107.3549,18.11,19.15,45.31,0,110.8,13.21,18.92,1.3
"2009-06-02 00:08:30",939206,3.729,36.97,5.132,0.34,16.5,107.3549,18.11,19.17,45.19,0,110.8,13.21,18.92,359.0
"2009-06-02 00:09:00",939207,4.103,29.69,2.443,0.46,16.57,107.3546,18.1,19.15,45.2,0,110.8,13.21,18.92,351.7
"2009-06-02 00:09:30",939208,3.326,30.69,3.558,0.42,16.55,107.347,18.08,19.13,45.17,0,110.8,13.21,18.90,352.7
"2009-06-02 00:10:00",939209,3.059,27.78,2.282,0.315,16.55,107.3265,18.03,19.12,45.14,0,110.8,13.21,18.85,349.8
"2009-06-02 00:10:30",939210,3.121,28.14,2.989,0.28,16.54,107.3212,18.02,19.1,45.12,0,110.8,13.21,18.83,350.1
"2009-06-02 00:11:00",939211,3.987,24.34,3.538,0.418,16.55,107.3212,18.02,19.1,45.01,0,110.8,13.21,18.83,346.3
"2009-06-02 00:11:30",939212,4.541,30.97,4.504,0.395,16.55,107.321,18.02,19.1,45.2,0,110.8,13.21,18.83,353.0
"2009-06-02 00:12:00",939213,3.79,27.59,3.606,0.267,16.58,107.3048,17.98,19.07,45.3,0,110.8,13.21,18.79,349.6
"2009-06-02 00:12:30",939214,3.887,22.46,3.623,0.244,16.59,107.2912,17.94,19.05,45.31,0,110.8,13.21,18.76,344.5
"2009-06-02 00:13:00",939215,3.804,24.95,3.76,0.326,16.65,107.2917,17.94,19.04,45.54,0,110.8,13.21,18.76,347.0
"2009-06-02 00:13:30",939216,4.305,26.53,6.833,0.509,16.62,107.2896,17.94,19.02,46.01,0,110.8,13.21,18.75,348.5
"2009-06-02 00:14:00",939217,4.115,35.82,3.937,0.498,16.53,107.2844,17.92,19,45.77,0,110.8,13.21,18.74,357.8
"2009-06-02 00:14:30",939218,4.006,33.65,3.244,0.303,16.54,107.2677,17.88,18.99,45.69,0,110.8,13.21,18.70,355.6
"2009-06-02 00:15:00",939219,3.986,32.59,2.101,0.378,16.5,107.2655,17.88,18.97,45.4,0,110.8,13.21,18.69,354.6
"2009-06-02 00:15:30",939220,3.583,34.15,3.902,0.43,16.45,107.2697,17.89,18.96,45.56,0,110.8,13.21,18.70,356.1
"2009-06-02 00:16:00",939221,2.649,21.58,4.034,0.337,16.36,107.2757,17.9,18.93,45.87,0,110.8,13.22,18.72,343.6
"2009-06-02 00:16:30",939222,3.602,30.92,8.2,0.91,16.21,107.2787,17.91,18.93,46.16,0,110.8,13.22,18.72,352.9
"2009-06-02 00:17:00",939223,4.113,41.86,4.835,0.626,16.05,107.2788,17.91,18.93,46.06,0,110.8,13.22,18.72,3.9
"2009-06-02 00:17:30",939224,3.947,22.57,6.553,0.272,16.04,107.2699,17.89,18.92,46.21,0,110.8,13.22,18.70,344.6
"2009-06-02 00:18:00",939225,3.599,17.05,5.928,0.415,15.99,107.2646,17.87,18.91,46.27,0,110.8,13.22,18.69,339.0
"2009-06-02 00:18:30",939226,3.908,31.51,1.955,0.381,15.92,107.2684,17.88,18.9,46.2,0,110.8,13.22,18.70,353.5
"2009-06-02 00:19:00",939227,3.603,22.53,3.585,0.429,16,107.274,17.9,18.9,46.14,0,110.8,13.22,18.71,344.5
"2009-06-02 00:19:30",939228,3.718,20.95,2.98,0.327,16.13,107.2825,17.92,18.9,46.02,0,110.8,13.22,18.73,343.0
"2009-06-02 00:20:00",939229,3.375,25.98,2.474,0.268,16.22,107.2848,17.93,18.91,46.02,0,110.8,13.22,18.74,348.0
"2009-06-02 00:20:30",939230,3.446,32.99,5.943,0.51,16.24,107.286,17.93,18.89,45.95,0,110.8,13.22,18.74,355.0
"2009-06-02 00:21:00",939231,3.517,28.37,4.629,0.424,16.32,107.2875,17.93,18.91,45.73,0,110.8,13.22,18.75,350.4
"2009-06-02 00:21:30",939232,4.045,28.31,5.008,0.256,16.31,107.2884,17.93,18.91,46.02,0,110.8,13.22,18.75,350.3
"2009-06-02 00:22:00",939233,3.808,20.24,3.252,0.397,16.3,107.2893,17.94,18.91,45.66,0,110.8,13.22,18.75,342.2
"2009-06-02 00:22:30",939234,3.618,24.76,4.25,0.365,16.24,107.2899,17.94,18.94,45.5,0,110.8,13.22,18.75,346.8
"2009-06-02 00:23:00",939235,4.632,31.99,2.217,0.649,16.05,107.2899,17.94,18.93,45.97,0,110.8,13.22,18.75,354.0
"2009-06-02 00:23:30",939236,3.771,29.4,1.985,0.208,16.23,107.2899,17.94,18.93,46.5,0,110.8,13.22,18.75,351.4
"2009-06-02 00:24:00",939237,3.904,31.7,2.779,0.452,16.28,107.2896,17.94,18.95,46.42,0,110.8,13.22,18.75,353.7
"2009-06-02 00:24:30",939238,3.802,27.79,3.975,0.395,16.31,107.2899,17.94,18.94,46.3,0,110.8,13.22,18.75,349.8
"2009-06-02 00:25:00",939239,3.771,30.5,3.175,0.288,16.36,107.2899,17.94,18.94,46.36,0,110.8,13.22,18.75,352.5
"2009-06-02 00:25:30",939240,3.856,30.55,1.907,0.29,16.4,107.2899,17.94,18.93,46.53,0,110.8,13.21,18.75,352.5
"2009-06-02 00:26:00",939241,3.674,29.25,2.841,0.554,16.42,107.2896,17.94,18.94,46.44,0,110.8,13.21,18.75,351.2
"2009-06-02 00:26:30",939242,5.165,35.23,1.857,0.404,16.37,107.2767,17.9,18.93,46.21,0,110.8,13.21,18.72,357.2
"2009-06-02 00:27:00",939243,5.101,33.35,2.912,0.586,16.45,107.2595,17.86,18.92,45.86,0,110.8,13.21,18.67,355.4
"2009-06-02 00:27:30",939244,4.352,29.89,2.126,0.486,16.45,107.2561,17.85,18.91,45.97,0,110.8,13.21,18.67,351.9
"2009-06-02 00:28:00",939245,4.839,27.43,3.866,0.457,16.48,107.2561,17.85,18.89,46.19,0,110.8,13.21,18.67,349.4
"2009-06-02 00:28:30",939246,5.011,23.64,3.166,0.264,16.44,107.2474,17.83,18.86,46.15,0,110.8,13.21,18.64,345.6
"2009-06-02 00:29:00",939247,4.186,28.53,2.449,0.276,16.56,107.2286,17.78,18.86,45.86,0,110.8,13.21,18.60,350.5
"2009-06-02 00:29:30",939248,4.112,29.07,4.422,0.432,16.54,107.2224,17.77,18.84,45.79,0,110.8,13.21,18.58,351.1
"2009-06-02 00:30:00",939249,4.585,41.5,3.199,0.245,16.49,107.2221,17.76,18.83,45.93,0,110.8,13.21,18.58,3.5
"2009-06-02 00:30:30",939250,4.195,35.37,5.182,0.478,16.5,107.2083,17.73,18.79,46.33,0,110.8,13.22,18.54,357.4
"2009-06-02 00:31:00",939251,3.46,30,4.047,0.455,16.54,107.1903,17.68,18.78,46.73,0,110.8,13.22,18.50,352.0
"2009-06-02 00:31:30",939252,2.892,29.83,4.03,0.372,16.52,107.1887,17.68,18.78,46.66,0,110.8,13.22,18.49,351.8
"2009-06-02 00:32:00",939253,3.63,39.71,1.71,0.162,16.5,107.1884,17.68,18.75,46.39,0,110.8,13.22,18.49,1.7
"2009-06-02 00:32:30",939254,3.406,36.41,3.433,0.437,16.58,107.1707,17.63,18.74,46.18,0,110.8,13.22,18.45,358.4
"2009-06-02 00:33:00",939255,3.616,40.78,3.661,0.169,16.53,107.1555,17.59,18.72,46.14,0,110.8,13.22,18.41,2.8
"2009-06-02 00:33:30",939256,3.56,30.98,3.833,0.353,16.6,107.1549,17.59,18.69,46.28,0,110.8,13.22,18.41,353.0
"2009-06-02 00:34:00",939257,3.486,37,5.417,0.241,16.55,107.155,17.59,18.68,46.44,0,110.8,13.22,18.41,359.0
"2009-06-02 00:34:30",939258,4.093,36.76,3.362,0.333,16.65,107.1342,17.54,18.67,46.33,0,110.8,13.22,18.35,358.8
"2009-06-02 00:35:00",939259,4.157,32.81,2.82,0.43,16.57,107.126,17.52,18.65,46.36,0,110.8,13.23,18.33,354.8
"2009-06-02 00:35:30",939260,4.342,35.56,4.951,0.474,16.62,107.1345,17.54,18.62,46.45,0,110.8,13.23,18.35,357.6
"2009-06-02 00:36:00",939261,3.621,29.15,4.225,0.338,16.65,107.1176,17.5,18.6,46.69,0,110.8,13.23,18.31,351.1
"2009-06-02 00:36:30",939262,4.168,32.39,4.173,0.49,16.55,107.112,17.48,18.59,47.28,0,110.8,13.23,18.30,354.4
"2009-06-02 00:37:00",939263,4.493,33.31,1.592,0.441,16.56,107.1124,17.48,18.56,47.51,0,110.8,13.23,18.30,355.3
"2009-06-02 00:37:30",939264,4.631,33.05,1.6,0.37,16.58,107.0984,17.45,18.53,47.83,0,110.7,13.23,18.26,355.0
"2009-06-02 00:38:00",939265,4.846,33.7,1.131,0.439,16.54,107.081,17.4,18.51,47.52,0,110.7,13.23,18.22,355.7
"2009-06-02 00:38:30",939266,5.166,33.96,1.712,0.381,16.62,107.0807,17.4,18.48,47.59,0,110.7,13.23,18.21,356.0
"2009-06-02 00:39:00",939267,4.776,33.53,1.801,0.435,16.59,107.0582,17.34,18.46,47.68,0,110.7,13.23,18.16,355.5
"2009-06-02 00:39:30",939268,5.206,35.54,1.008,0.257,16.63,107.0509,17.33,18.43,47.26,0,110.7,13.23,18.14,357.5
"2009-06-02 00:40:00",939269,5.364,38.24,1.602,0.226,16.59,107.0374,17.29,18.4,47.26,0,110.7,13.23,18.10,0.2
"2009-06-02 00:40:30",939270,5.259,38.29,1.081,0.181,16.67,107.0223,17.25,18.36,47.92,0,110.7,13.23,18.06,0.3
"2009-06-02 00:41:00",939271,5.131,39.01,1.442,0.153,16.84,107.0189,17.24,18.34,47.67,0,110.7,13.24,18.06,1.0
"2009-06-02 00:41:30",939272,5.197,41.84,1.717,0.19,16.68,107.0009,17.2,18.3,47.34,0,110.7,13.24,18.01,3.8
"2009-06-02 00:42:00",939273,5.518,41.17,1.627,0.236,16.65,106.9882,17.17,18.28,47.62,0,110.7,13.24,17.98,3.2
"2009-06-02 00:42:30",939274,5.349,39.49,2.352,0.223,16.69,106.9877,17.16,18.25,48.15,0,110.7,13.23,17.98,1.5
"2009-06-02 00:43:00",939275,5.389,41.16,1.522,0.242,16.58,106.9694,17.12,18.23,47.99,0,110.7,13.23,17.93,3.2
"2009-06-02 00:43:30",939276,5.633,38.82,1.228,0.147,16.7,106.955,17.08,18.21,48.02,0,110.7,13.23,17.89,0.8
"2009-06-02 00:44:00",939277,5.489,37.91,1.669,0.257,16.69,106.9548,17.08,18.18,48.72,0,110.7,13.23,17.89,359.9
"2009-06-02 00:44:30",939278,5.514,36.76,1.578,0.263,16.76,106.9486,17.06,18.16,48.44,0,110.7,13.23,17.88,358.8
"2009-06-02 00:45:00",939279,5.563,38.54,1.17,0.103,16.66,106.9249,17,18.13,48.55,0,110.7,13.23,17.81,0.5
"2009-06-02 00:45:30",939280,5.384,39.74,2.041,0.218,16.75,106.921,16.99,18.1,48.79,0,110.7,13.23,17.80,1.7
"2009-06-02 00:46:00",939281,5.791,39.41,1.712,0.209,16.73,106.921,16.99,18.08,48.73,0,110.7,13.23,17.80,1.4
"2009-06-02 00:46:30",939282,5.794,40.18,1.429,0.09,16.74,106.9114,16.97,18.06,48.43,0,110.7,13.23,17.78,2.2
"2009-06-02 00:47:00",939283,5.706,40.31,1.714,0.089,16.69,106.8903,16.91,18.04,48.68,0,110.7,13.23,17.73,2.3
"2009-06-02 00:47:30",939284,6.046,40.08,0.611,0.138,16.89,106.8872,16.91,18.03,48.64,0,110.7,13.24,17.72,2.1
"2009-06-02 00:48:00",939285,6.157,39.95,0.849,0.075,16.75,106.8875,16.91,18.01,48.79,0,110.7,13.24,17.72,2.0
"2009-06-02 00:48:30",939286,6.066,39.98,1.74,0.256,16.75,106.8791,16.89,17.99,49.25,0,110.7,13.24,17.70,2.0
"2009-06-02 00:49:00",939287,6.198,40.79,1.209,0.093,16.84,106.864,16.85,17.97,48.91,0,110.7,13.24,17.66,2.8
"2009-06-02 00:49:30",939288,6.049,41.07,0.911,0.241,16.82,106.8556,16.83,17.94,48.82,0,110.7,13.24,17.64,3.1
"2009-06-02 00:50:00",939289,6.572,40.91,0.966,0.181,16.79,106.8589,16.83,17.95,49.3,0,110.7,13.24,17.64,2.9
"2009-06-02 00:50:30",939290,6.697,41.24,0.712,0.291,16.71,106.8634,16.85,17.92,49.11,0,110.7,13.24,17.66,3.2
"2009-06-02 00:51:00",939291,6.19,43.34,1.103,0.151,16.88,106.8597,16.84,17.91,48.91,0,110.7,13.24,17.65,5.3
"2009-06-02 00:51:30",939292,6.495,43.29,2.399,0.176,16.74,106.8437,16.79,17.88,49.22,0,110.7,13.25,17.61,5.3
"2009-06-02 00:52:00",939293,7.034,43.06,0.772,0.087,16.85,106.8374,16.78,17.88,49.66,0,110.7,13.25,17.59,5.1
"2009-06-02 00:52:30",939294,6.732,37.33,3.653,0.501,16.85,106.8381,16.78,17.87,49.95,0,110.7,13.25,17.59,359.3
"2009-06-02 00:53:00",939295,7.079,48.48,5.978,0.655,16.3,106.839,16.78,17.84,52.22,0,110.7,13.25,17.59,10.5
"2009-06-02 00:53:30",939296,8.34,52.75,0.871,0.238,16.04,106.8423,16.79,17.84,54.62,0,110.7,13.25,17.60,14.8
"2009-06-02 00:54:00",939297,8.29,52.92,1.887,0.233,16.27,106.8248,16.75,17.82,55.15,0,110.7,13.25,17.56,14.9
"2009-06-02 00:54:30",939298,8.19,52.79,1.797,0.365,16.47,106.8152,16.72,17.8,55.01,0,110.7,13.25,17.53,14.8
"2009-06-02 00:55:00",939299,8.44,51.53,2.094,0.221,16.5,106.7874,16.65,17.77,54.56,0,110.7,13.25,17.46,13.5
"2009-06-02 00:55:30",939300,7.802,50.66,2.612,0.241,16.57,106.7763,16.62,17.73,54.5,0,110.7,13.25,17.43,12.7
"2009-06-02 00:56:00",939301,7.947,54.87,2.031,0.239,16.51,106.7539,16.56,17.69,54.4,0,110.7,13.26,17.37,16.9
"2009-06-02 00:56:30",939302,8.07,56.24,1.214,0.157,16.22,106.7289,16.5,17.65,54.83,0,110.7,13.26,17.31,18.2
"2009-06-02 00:57:00",939303,7.848,56.32,3.368,0.156,16.12,106.7134,16.46,17.61,55.86,0,110.7,13.26,17.27,18.3
"2009-06-02 00:57:30",939304,8.05,51.46,2.398,0.32,16.62,106.6872,16.39,17.57,55,0,110.7,13.26,17.20,13.5
"2009-06-02 00:58:00",939305,8.01,53.85,0.847,0.121,16.38,106.6619,16.33,17.52,55.23,0,110.7,13.26,17.14,15.8
"2009-06-02 00:58:30",939306,8.29,56.36,1.726,0.318,16.13,106.6456,16.29,17.47,55.96,0,110.7,13.26,17.10,18.4
"2009-06-02 00:59:00",939307,8.02,54.85,2.177,0.294,16.25,106.6199,16.22,17.43,56.37,0,110.7,13.26,17.03,16.8
"2009-06-02 00:59:30",939308,8.09,53.48,1.455,0.139,16.37,106.5952,16.16,17.37,56.13,0,110.7,13.25,16.97,15.5
"2009-06-02 01:00:00",939309,8.18,52.59,1.014,0.095,16.31,106.5805,16.12,17.33,56.48,0,110.7,13.25,16.93,14.6
"2009-06-02 01:00:30",939310,7.959,52.56,1.16,0.168,16.42,106.553,16.05,17.29,56.48,0,110.6,13.25,16.86,14.6
"2009-06-02 01:01:00",939311,7.53,50.77,1.439,0.17,16.64,106.5335,16,17.23,55.86,0,110.6,13.25,16.81,12.8
"2009-06-02 01:01:30",939312,7.178,50.2,1.157,0.171,16.58,106.5181,15.96,17.19,55.71,0,110.6,13.25,16.77,12.2
"2009-06-02 01:02:00",939313,7.119,50.38,1.716,0.25,16.5,106.5082,15.93,17.14,55.83,0,110.6,13.25,16.74,12.4
"2009-06-02 01:02:30",939314,7.344,53.86,1.471,0.193,16.43,106.4865,15.88,17.11,56.25,0,110.6,13.25,16.69,15.9
"2009-06-02 01:03:00",939315,7.451,54.64,1.91,0.263,16.3,106.4843,15.87,17.07,57.18,0,110.6,13.26,16.68,16.6
"2009-06-02 01:03:30",939316,7.164,55.05,2.014,0.19,16.24,106.4762,15.85,17.03,57.54,0,110.6,13.26,16.66,17.0
"2009-06-02 01:04:00",939317,7.533,53.79,1.535,0.261,16.29,106.4534,15.79,17,57.67,0,110.6,13.26,16.60,15.8
"2009-06-02 01:04:30",939318,7.124,54.9,2.821,0.19,16.25,106.4529,15.79,16.97,57.6,0,110.6,13.26,16.60,16.9
"2009-06-02 01:05:00",939319,7.079,56.56,2.369,0.14,16.27,106.4589,15.81,16.94,57.62,0,110.6,13.26,16.62,18.6
"2009-06-02 01:05:30",939320,7.218,59.06,1.732,0.15,16.16,106.4453,15.77,16.92,57.96,0,110.6,13.26,16.58,21.1
"2009-06-02 01:06:00",939321,7.435,59.98,1.906,0.248,16.21,106.4362,15.75,16.89,58.34,0,110.6,13.26,16.56,22.0
"2009-06-02 01:06:30",939322,7.481,60.37,1.544,0.23,16.26,106.4377,15.75,16.88,58.56,0,110.6,13.27,16.56,22.4
"2009-06-02 01:07:00",939323,7.505,61.81,1.787,0.135,16.23,106.4416,15.76,16.86,58.77,0,110.6,13.27,16.57,23.8
"2009-06-02 01:07:30",939324,7.658,61.56,1.025,0.198,16.26,106.4417,15.76,16.83,58.94,0,110.6,13.27,16.57,23.6
"2009-06-02 01:08:00",939325,7.69,61.23,1.121,0.247,16.23,106.4289,15.73,16.84,59.12,0,110.6,13.27,16.54,23.2
"2009-06-02 01:08:30",939326,7.744,61.77,1.619,0.304,16.3,106.4156,15.7,16.81,59.2,0,110.6,13.27,16.50,23.8
"2009-06-02 01:09:00",939327,8.18,62.9,1.222,0.183,16.18,106.4159,15.7,16.78,59.28,0,110.6,13.27,16.51,24.9
"2009-06-02 01:09:30",939328,8.38,63.44,1.47,0.183,16.26,106.4171,15.7,16.76,59.27,0,110.6,13.27,16.51,25.4
"2009-06-02 01:10:00",939329,8.62,63.88,1.158,0.132,16.2,106.4186,15.71,16.75,59.35,0,110.6,13.27,16.51,25.9
"2009-06-02 01:10:30",939330,8.58,63.84,1.025,0.123,16.2,106.4,15.66,16.74,59.48,0,110.6,13.27,16.46,25.8
"2009-06-02 01:11:00",939331,8.51,64.59,0.855,0.113,16.18,106.3857,15.62,16.72,59.51,0,110.6,13.27,16.43,26.6
"2009-06-02 01:11:30",939332,8.88,66.04,0.993,0.272,16.1,106.3851,15.62,16.7,59.52,0,110.6,13.27,16.43,28.0
"2009-06-02 01:12:00",939333,9.06,65.65,0.582,0.053,16.14,106.3851,15.62,16.69,59.1,0,110.6,13.27,16.43,27.7
"2009-06-02 01:12:30",939334,8.87,66.18,2.054,0.262,16.08,106.3725,15.59,16.66,58.91,0,110.6,13.27,16.39,28.2
"2009-06-02 01:13:00",939335,8.61,63.96,1.465,0.238,16.11,106.3544,15.54,16.65,59.17,0,110.6,13.27,16.35,26.0
"2009-06-02 01:13:30",939336,8.69,64.38,1.482,0.287,16.18,106.3513,15.53,16.63,59.18,0,110.6,13.27,16.34,26.4
"2009-06-02 01:14:00",939337,8.44,63.87,2.054,0.231,15.98,106.3505,15.53,16.6,59.13,0,110.6,13.27,16.34,25.9
"2009-06-02 01:14:30",939338,8.6,65.93,1.147,0.281,16.09,106.3336,15.49,16.59,59.12,0,110.6,13.27,16.29,27.9
"2009-06-02 01:15:00",939339,8.94,65.75,0.724,0.165,16.34,106.3181,15.45,16.57,58.35,0,110.6,13.27,16.25,27.8
"2009-06-02 01:15:30",939340,9.04,66.59,1.165,0.265,16.29,106.3176,15.45,16.55,58.47,0,110.6,13.27,16.25,28.6
"2009-06-02 01:16:00",939341,8.75,66.32,0.546,0.183,16.36,106.317,15.44,16.53,58.25,0,110.6,13.27,16.25,28.3
"2009-06-02 01:16:30",939342,8.75,66.86,0.81,0.108,16.34,106.3007,15.4,16.51,58.39,0,110.6,13.27,16.21,28.9
"2009-06-02 01:17:00",939343,8.67,65.37,0.576,0.099,16.37,106.2849,15.36,16.49,58.37,0,110.6,13.27,16.17,27.4
"2009-06-02 01:17:30",939344,8.66,64.38,0.526,0.12,16.32,106.2838,15.36,16.47,58.37,0,110.6,13.27,16.17,26.4
"2009-06-02 01:18:00",939345,8.56,65.25,1.009,0.112,16.29,106.2838,15.36,16.47,58.77,0,110.6,13.27,16.17,27.2
"2009-06-02 01:18:30",939346,8.77,65.2,0.725,0.276,16.32,106.2838,15.36,16.44,58.59,0,110.6,13.27,16.17,27.2
"2009-06-02 01:19:00",939347,9.04,63.88,0.671,0.093,16.28,106.2838,15.36,16.44,58.14,0,110.6,13.27,16.17,25.9
"2009-06-02 01:19:30",939348,8.92,63.02,0.836,0.149,16.34,106.2812,15.35,16.43,57.91,0,110.5,13.27,16.16,25.0
"2009-06-02 01:20:00",939349,8.85,63.07,0.88,0.121,16.18,106.2712,15.33,16.41,57.86,0,110.6,13.27,16.13,25.1
"2009-06-02 01:20:30",939350,8.71,63.3,1.325,0.22,16.05,106.2611,15.3,16.41,58.04,0,110.5,13.27,16.11,25.3
"2009-06-02 01:21:00",939351,8.7,62.54,1.126,0.101,16.08,106.2566,15.29,16.39,57.73,0,110.5,13.27,16.10,24.5
"2009-06-02 01:21:30",939352,8.86,61.59,0.547,0.156,16.2,106.2608,15.3,16.38,57.81,0,110.5,13.27,16.11,23.6
"2009-06-02 01:22:00",939353,8.81,62.03,0.425,0.117,16.25,106.2632,15.31,16.38,57.93,0,110.5,13.28,16.11,24.0
"2009-06-02 01:22:30",939354,8.76,61.61,0.782,0.126,16.21,106.2655,15.31,16.37,57.94,0,110.5,13.28,16.12,23.6
"2009-06-02 01:23:00",939355,8.83,60.27,0.481,0.085,16.23,106.2694,15.32,16.35,58.1,0,110.5,13.28,16.13,22.3
"2009-06-02 01:23:30",939356,8.83,60.88,0.761,0.061,16.23,106.2754,15.34,16.36,57.87,0,110.5,13.28,16.14,22.9
"2009-06-02 01:24:00",939357,8.83,60.48,0.497,0.092,16.27,106.2769,15.34,16.35,57.81,0,110.5,13.28,16.15,22.5
"2009-06-02 01:24:30",939358,8.91,60.1,0.495,0.092,16.31,106.2775,15.34,16.36,57.49,0,110.5,13.28,16.15,22.1
"2009-06-02 01:25:00",939359,8.76,58.89,0.458,0.125,16.26,106.2811,15.35,16.35,57.8,0,110.5,13.28,16.16,20.9
"2009-06-02 01:25:30",939360,8.8,58.63,0.513,0.108,16.27,106.2838,15.36,16.35,57.77,0,110.5,13.28,16.17,20.6
"2009-06-02 01:26:00",939361,8.52,58.67,0.628,0.08,16.43,106.2853,15.36,16.35,57.98,0,110.5,13.28,16.17,20.7
"2009-06-02 01:26:30",939362,8.67,58.36,0.689,0.1,16.3,106.2856,15.36,16.35,58.07,0,110.5,13.28,16.17,20.4
"2009-06-02 01:27:00",939363,8.77,59.5,0.653,0.096,16.2,106.2859,15.37,16.35,57.63,0,110.5,13.29,16.17,21.5
"2009-06-02 01:27:30",939364,9.04,57.91,0.267,0.117,16.28,106.2859,15.37,16.35,57.39,0,110.5,13.29,16.17,19.9
"2009-06-02 01:28:00",939365,8.86,57.89,0.267,0.137,16.29,106.2859,15.37,16.34,57.18,0,110.5,13.29,16.17,19.9
"2009-06-02 01:28:30",939366,8.84,55.74,0.509,0.059,16.2,106.2859,15.37,16.35,57.31,0,110.5,13.29,16.17,17.7
"2009-06-02 01:29:00",939367,8.68,55.71,0.17,0.046,16.33,106.2859,15.37,16.34,57.45,0,110.5,13.29,16.17,17.7
"2009-06-02 01:29:30",939368,8.63,55.42,0.48,0.108,16.3,106.2859,15.37,16.34,57.45,0,110.5,13.29,16.17,17.4
"2009-06-02 01:30:00",939369,8.68,51.21,1.418,0.166,15.9,106.2859,15.37,16.34,57.48,0,110.5,13.29,16.17,13.2
"2009-06-02 01:30:30",939370,8.5,50.06,0.55,0.172,15.88,106.2856,15.36,16.33,57.8,0,110.5,13.29,16.17,12.1
"2009-06-02 01:31:00",939371,8.07,49.78,0.404,0.164,15.72,106.2744,15.34,16.34,58.46,0,110.5,13.29,16.14,11.8
"2009-06-02 01:31:30",939372,7.949,53.67,2.767,0.182,16.19,106.2538,15.28,16.32,57.98,0,110.5,13.29,16.09,15.7
"2009-06-02 01:32:00",939373,8.1,58.82,0.36,0.063,16.4,106.2521,15.28,16.29,57.41,0,110.5,13.29,16.08,20.8
"2009-06-02 01:32:30",939374,7.997,58.85,0.317,0.033,16.39,106.2521,15.28,16.29,57.22,0,110.5,13.29,16.08,20.8
"2009-06-02 01:33:00",939375,7.865,58.53,0.897,0.055,16.47,106.2513,15.28,16.28,57.51,0,110.5,13.29,16.08,20.5
"2009-06-02 01:33:30",939376,7.888,57.95,0.506,0.047,16.52,106.2482,15.27,16.27,57.91,0,110.5,13.29,16.07,20.0
"2009-06-02 01:34:00",939377,7.877,57.94,0.028,0.036,16.52,106.2425,15.25,16.26,57.76,0,110.5,13.29,16.06,19.9
"2009-06-02 01:34:30",939378,7.929,57.91,0.192,0.041,16.51,106.2414,15.25,16.26,57.57,0,110.5,13.29,16.06,19.9
"2009-06-02 01:35:00",939379,7.747,57.94,0.426,0.062,16.45,106.2423,15.25,16.25,57.36,0,110.5,13.29,16.06,19.9
"2009-06-02 01:35:30",939380,7.725,58.24,0.815,0.052,16.43,106.2445,15.26,16.26,57.18,0,110.5,13.29,16.06,20.2
"2009-06-02 01:36:00",939381,7.681,58.38,0.846,0.123,16.31,106.2465,15.26,16.26,57.36,0,110.5,13.29,16.07,20.4
"2009-06-02 01:36:30",939382,7.756,57.82,0.851,0.063,16.44,106.2465,15.26,16.26,57.23,0,110.5,13.29,16.07,19.8
"2009-06-02 01:37:00",939383,7.831,57.81,0.711,0.043,16.54,106.2487,15.27,16.26,57.26,0,110.5,13.29,16.08,19.8
"2009-06-02 01:37:30",939384,7.846,56.72,0.858,0.114,16.5,106.2513,15.28,16.26,57.38,0,110.5,13.29,16.08,18.7
"2009-06-02 01:38:00",939385,7.708,56.91,1.009,0.034,16.46,106.2521,15.28,16.26,57.5,0,110.5,13.29,16.08,18.9
"2009-06-02 01:38:30",939386,7.613,56.37,0.795,0.069,16.41,106.2521,15.28,16.27,57.71,0,110.5,13.29,16.08,18.4
"2009-06-02 01:39:00",939387,7.655,56.77,0.843,0.068,16.39,106.2521,15.28,16.27,57.8,0,110.5,13.29,16.08,18.8
"2009-06-02 01:39:30",939388,7.639,56.88,0.02,0.091,16.32,106.2524,15.28,16.27,57.49,0,110.5,13.3,16.08,18.9
"2009-06-02 01:40:00",939389,7.414,57.61,0.885,0.052,16.37,106.253,15.28,16.28,57.48,0,110.5,13.3,16.09,19.6
"2009-06-02 01:40:30",939390,7.431,57.94,0.433,0.037,16.33,106.2548,15.29,16.29,57.55,0,110.5,13.3,16.09,19.9
"2009-06-02 01:41:00",939391,7.559,57.9,0.374,0.062,16.37,106.2566,15.29,16.29,57.4,0,110.5,13.3,16.10,19.9
"2009-06-02 01:41:30",939392,7.382,56.76,0.935,0.116,16.37,106.2596,15.3,16.3,57.4,0,110.5,13.3,16.10,18.8
"2009-06-02 01:42:00",939393,7.295,58.05,1.304,0.099,16.53,106.2635,15.31,16.3,57.43,0,110.5,13.3,16.11,20.0
"2009-06-02 01:42:30",939394,7.384,59.73,0.501,0.037,16.47,106.2626,15.31,16.31,57.36,0,110.5,13.3,16.11,21.7
"2009-06-02 01:43:00",939395,7.342,58.41,0.513,0.067,16.44,106.268,15.32,16.31,57.33,0,110.5,13.3,16.12,20.4
"2009-06-02 01:43:30",939396,7.501,59.76,0.493,0.049,16.51,106.2698,15.32,16.31,57.41,0,110.5,13.3,16.13,21.8
"2009-06-02 01:44:00",939397,7.442,59.32,0.489,0.068,16.51,106.2749,15.34,16.33,57.52,0,110.5,13.3,16.14,21.3
"2009-06-02 01:44:30",939398,7.361,58.55,0.593,0.044,16.62,106.2761,15.34,16.33,57.71,0,110.5,13.3,16.15,20.5
"2009-06-02 01:45:00",939399,7.388,57.09,0.763,0.046,16.43,106.2785,15.35,16.32,57.85,0,110.5,13.3,16.15,19.1
"2009-06-02 01:45:30",939400,7.262,56.27,0.989,0.065,16.49,106.2799,15.35,16.33,57.92,0,110.5,13.3,16.16,18.3
"2009-06-02 01:46:00",939401,7.316,56.01,1.2,0.042,16.44,106.2848,15.36,16.35,57.7,0,110.5,13.3,16.17,18.0
"2009-06-02 01:46:30",939402,7.06,52.37,1.582,0.084,15.96,106.2874,15.37,16.33,57.07,0,110.5,13.3,16.17,14.4
"2009-06-02 01:47:00",939403,7.157,51.63,0.906,0.261,15.71,106.2867,15.37,16.34,55.92,0,110.5,13.3,16.17,13.6
"2009-06-02 01:47:30",939404,7.198,53.86,1.539,0.134,16.29,106.285,15.36,16.34,55.6,0,110.5,13.3,16.17,15.9
"2009-06-02 01:48:00",939405,7.137,55.91,1.12,0.118,16.41,106.2868,15.37,16.35,56.69,0,110.5,13.3,16.17,17.9
"2009-06-02 01:48:30",939406,7.396,52.59,1.604,0.151,16.38,106.2871,15.37,16.33,56.87,0,110.5,13.3,16.17,14.6